EDSB

Baden Airpark

Airport
ICAO code
EDSB
IATA Code
FKB
Summary
ICAO Region
EUR
ICAO Territory
Location

Rheinmünster, Baden-Wurttemberg

Serving
Baden Baden and Karlsruhe
Elevation
408 ft
Coordinates
48° 46' 41" N , 8° 5' 16" E
KCC
Metar
EDSB 190620Z 22009KT 7000 RA BKN037 OVC043 06/04 Q1018

Description

International airport serving Baden-Baden and Karlsruhe, Germany.

Climatology

Temperate Marine climate/Oceanic climate (Köppen climate classification Cfb) - Moderately cool summer and comparatively warm winter.

Runways

Designator Length Width Surface Rops
3/21 2983 45 ASP Yes/Yes

Airport map

Aerial View

SKYbrary Partners:

Safety knowledge contributed by: